RH
46 46 48 49 47 41 34 34 36 35 38 33 31 29 27 26 26 27 28 28 27 30 30 27 27 30 27 26 26 26 24 23 23 25 23 27 32 31 28 28 30 27 28
52 50 48 50 50 44 40 36 33 33 33 33 32 30 28 28 28 28 29 31 29 34 34 32 31 30 27 27 27 24 25 23 25 26 28 34 35 38 39 40 36 28 24
58 61 58 59 59 54 46 43 37 32 29 30 34 34 31 29 30 32 30 30 33 35 35 40 34 33 30 30 28 27 26 25 28 29 34 35 45 54 54 44 33 29 23
42 62 66 66 66 64 60 52 48 40 34 33 33 37 35 31 32 34 39 34 37 36 37 42 36 39 35 34 30 30 31 32 31 31 32 46 50 39 39 35 32 27 23
30 49 64 72 70 70 71 68 63 57 45 46 46 42 40 36 38 40 48 44 44 39 44 46 44 43 37 36 36 38 37 40 40 35 37 36 35 35 39 36 27 21 18
32 32 41 67 78 84 84 78 76 76 67 52 54 49 47 43 42 45 56 51 50 44 48 52 48 48 43 46 42 45 40 41 44 38 34 33 30 37 41 36 28 22 22
37 33 33 40 67 86 94 94 90 82 84 71 58 53 53 52 46 44 52 57 58 52 59 53 53 58 56 53 47 45 49 46 47 44 37 35 37 37 35 32 21 24 21
47 41 34 35 42 73 100 100 100 99 92 80 69 63 58 62 54 45 53 58 60 59 57 58 58 61 59 55 52 49 45 41 42 46 42 42 40 35 32 26 24 22 14
63 55 44 39 42 64 100 100 100 98 100 89 81 72 71 67 65 63 61 60 62 69 69 69 65 65 64 60 50 48 48 40 47 44 42 39 37 40 34 27 22 19 12
81 69 56 49 44 58 79 81 93 96 93 90 82 80 82 81 76 74 70 64 58 70 72 67 65 61 64 64 51 45 48 46 48 48 48 46 44 44 44 33 26 19 12
81 86 77 62 52 53 60 60 64 83 83 82 79 79 77 78 83 85 81 71 67 70 71 70 71 69 67 64 64 50 48 48 54 50 63 55 46 59 46 34 30 22 13
70 80 81 81 69 58 57 48 54 68 84 82 74 66 69 66 71 85 90 89 86 82 79 83 77 71 70 64 53 47 54 61 57 54 51 59 60 60 51 39 35 29 16
73 65 85 93 91 76 61 52 46 51 78 90 76 64 66 66 62 57 61 59 61 69 66 67 68 58 64 56 52 46 53 61 52 57 78 74 95 71 50 43 42 33 27
59 58 60 94 88 88 80 67 57 48 67 73 82 70 64 65 64 59 63 52 43 44 49 47 53 65 72 58 48 57 55 60 70 84 90 75 90 68 60 43 37 35 33
52 53 53 57 99 98 76 74 74 68 64 76 80 87 72 73 71 60 57 64 48 48 53 54 59 66 59 60 60 60 58 64 68 70 100 88 92 80 69 46 44 33 30
57 50 49 49 56 99 100 97 93 90 91 87 83 81 75 78 62 56 55 57 56 52 53 57 56 49 49 61 70 74 66 71 59 66 100 80 72 76 60 57 48 43 29
68 57 54 48 48 55 85 100 100 100 100 98 92 90 77 69 66 58 59 57 61 62 57 50 50 48 50 55 58 71 66 67 61 59 67 57 65 54 57 57 56 36 25
78 74 59 51 48 49 50 63 92 100 100 100 100 99 88 78 73 67 66 66 70 70 63 58 61 67 77 70 60 63 66 71 61 58 57 62 57 67 60 62 40 24 23
84 80 73 67 58 47 45 47 54 76 95 100 100 100 94 92 87 85 91 92 86 87 83 79 74 72 67 73 73 82 81 64 66 56 66 63 72 69 62 38 27 23 23
87 91 98 84 71 62 48 44 44 45 52 71 88 99 98 91 95 94 87 81 83 86 86 77 80 85 80 72 60 68 77 63 62 69 59 63 65 75 51 29 26 24 24
98 95 100 100 95 68 58 48 44 43 42 45 62 82 89 87 82 80 75 68 66 62 61 62 59 60 71 52 47 49 54 60 55 80 78 86 74 40 30 25 25 25 26
100 98 97 97 94 89 89 66 52 46 44 41 44 58 79 80 72 64 60 41 37 44 44 42 54 54 53 57 48 48 62 82 98 98 74 46 32 28 26 26 27 27 26
95 100 87 98 99 100 95 92 76 62 48 49 58 59 61 67 68 63 42 32 32 30 36 36 36 37 42 50 58 72 85 80 50 36 32 30 29 27 28 27 28 29 28
84 100 94 99 100 100 98 87 87 87 59 62 56 54 64 72 83 76 36 31 32 33 32 34 36 35 36 37 36 35 34 33 31 32 32 31 29 30 29 31 31 30 28
100 83 98 100 100 100 98 84 81 74 69 58 50 53 93 93 95 76 40 34 34 34 36 34 31 32 34 33 33 33 33 31 31 33 32 32 32 32 34 33 29 27 28
100 100 92 98 99 96 92 94 82 87 71 64 68 60 75 98 91 70 47 34 32 34 34 36 34 31 31 32 34 33 33 36 36 33 37 38 37 37 36 33 34 33 30
Wind_Speed
37 35 32 31 29 27 25 26 26 26 24 22 21 22 23 22 21 22 21 21 22 22 22 21 21 22 21 21 22 24 25 25 26 26 25 25 27 29 31 33 36 38 40
37 37 36 35 34 33 30 29 29 29 28 28 26 25 24 25 24 24 24 23 23 24 23 23 21 22 22 23 24 24 25 24 23 24 26 27 29 31 33 36 38 41 44
37 38 37 37 37 36 35 34 33 32 32 31 32 30 28 27 26 26 26 25 24 24 25 24 24 23 24 24 24 25 25 23 23 24 26 28 30 33 36 39 42 45 47
37 37 38 38 38 37 36 36 36 36 36 35 34 34 32 30 30 29 27 26 25 24 25 25 24 24 25 26 25 25 25 25 26 25 26 28 32 36 38 42 45 48 50
39 38 38 38 39 38 36 35 36 36 37 36 36 35 34 34 33 31 29 26 25 25 24 25 26 26 25 24 25 24 23 25 27 29 29 32 34 35 37 41 45 49 50
43 42 40 39 39 38 38 38 37 36 37 38 37 36 36 36 35 33 30 29 26 27 26 25 26 27 26 26 25 24 25 27 29 31 33 34 36 38 41 44 48 50 50
48 46 43 41 40 39 39 39 39 39 37 38 39 38 37 37 37 36 32 29 27 26 27 27 27 28 28 28 29 28 28 30 32 34 34 36 38 40 42 44 46 47 46
51 50 47 44 40 39 40 41 41 40 41 39 39 39 38 38 39 40 36 31 28 28 29 29 30 31 31 31 31 31 32 33 35 35 35 37 40 42 44 45 46 46 42
51 51 49 46 43 41 42 45 43 44 41 41 40 39 39 40 39 40 38 34 29 30 30 30 33 35 34 34 35 34 36 37 37 37 37 39 41 44 46 47 48 45 42
53 53 50 49 47 45 45 46 46 46 44 43 40 38 39 41 40 40 38 37 35 31 33 33 36 38 38 37 39 39 38 39 39 39 40 42 43 46 49 50 50 47 44
55 54 53 52 50 47 48 47 45 45 45 43 41 40 41 42 40 40 40 39 38 36 37 38 39 42 42 41 41 42 41 40 41 41 42 45 46 48 52 52 53 50 48
56 55 53 54 53 52 51 48 46 44 43 42 41 40 42 41 41 39 41 41 40 40 40 41 43 46 45 44 43 43 42 41 43 42 43 45 48 51 54 55 55 51 52
58 56 55 56 56 56 55 51 48 44 43 43 43 42 42 40 41 40 42 43 42 41 43 45 45 47 45 46 44 42 42 44 46 45 45 46 48 54 57 58 57 56 55
60 58 57 57 58 58 56 54 52 48 45 44 44 44 44 43 43 42 43 44 43 44 45 45 45 44 45 47 47 46 46 46 44 44 48 50 52 55 59 59 57 59 58
62 60 59 57 58 58 56 53 53 52 50 48 47 48 47 47 47 46 44 45 46 47 47 48 49 49 50 50 50 49 49 49 48 45 49 54 55 58 62 61 58 59 59
66 64 61 59 58 58 59 57 56 54 53 52 51 51 51 50 49 49 48 47 48 50 52 52 53 54 53 52 51 53 52 50 50 48 50 56 58 61 62 64 62 61 60
67 66 62 61 60 58 58 58 59 58 58 57 55 54 54 53 52 51 51 50 51 53 55 56 55 55 56 53 51 54 54 50 51 52 53 55 58 58 63 64 63 61 61
69 64 64 62 60 59 57 58 59 58 58 60 58 57 56 55 55 54 54 54 55 56 57 58 58 56 55 56 54 55 52 53 55 57 56 57 58 61 63 63 62 63 63
69 68 66 63 62 62 59 59 59 58 59 58 58 58 58 58 57 56 55 55 56 58 59 60 61 62 59 56 55 55 56 57 61 60 60 59 60 63 65 64 64 65 68
70 68 66 65 64 63 61 60 58 59 58 59 57 56 58 58 57 58 58 57 58 58 60 62 62 62 60 59 59 57 59 63 65 64 61 61 65 66 66 66 68 69 71
72 72 67 67 66 66 62 61 61 62 60 60 58 56 56 57 57 57 57 57 57 59 61 62 62 61 59 63 65 63 64 64 63 65 66 67 68 65 66 70 72 73 74
73 66 59 63 64 65 63 64 65 65 61 59 59 58 57 55 55 56 55 55 56 57 59 61 61 63 65 63 65 65 65 66 66 69 69 67 68 70 72 73 75 77 78
70 75 69 61 60 63 63 66 67 66 64 63 59 58 58 57 57 56 56 55 56 57 58 58 59 60 61 62 64 65 66 68 66 68 71 73 74 76 77 79 80 82 84
65 69 66 63 62 62 65 65 64 66 65 65 63 59 60 60 60 58 58 59 58 60 62 63 62 63 63 63 64 67 68 69 72 74 77 78 80 82 83 85 86 87 88
64 70 63 62 65 66 68 69 71 69 67 67 67 63 62 61 60 60 62 63 65 65 66 68 69 69 70 71 73 73 75 77 79 79 83 84 86 87 89 91 93 94 94
68 74 74 67 63 64 66 67 68 68 69 68 65 66 67 66 67 68 69 70 71 70 72 73 74 75 77 78 79 81 83 83 86 87 88 90 93 96 96 96 98 99 99
Wind_Direction
244 245 247 251 251 251 252 255 256 259 261 261 267 269 272 275 274 275 275 275 273 273 272 267 269 273 274 276 278 278 278 279 279 283 289 293 291 293 293 294 293 293 290
246 247 247 248 251 253 251 253 256 259 260 263 263 266 271 275 279 281 280 280 281 281 283 279 276 278 277 276 281 280 283 292 293 298 301 299 298 297 299 298 298 296 295
247 247 248 247 249 252 252 253 254 257 260 262 263 264 268 268 275 280 281 284 284 284 284 281 281 286 289 287 289 289 292 298 298 301 304 301 304 302 303 302 301 303 304
246 246 247 246 247 249 251 254 256 257 260 261 263 265 267 268 273 279 284 286 284 282 281 282 283 288 293 294 295 295 295 300 306 307 306 307 305 306 304 303 304 304 305
248 245 245 246 246 248 250 251 255 257 258 259 262 265 267 271 274 277 285 287 286 279 278 280 278 283 290 296 298 296 295 300 303 305 307 306 304 305 305 305 305 308 311
249 248 247 245 246 245 247 249 252 254 257 260 263 266 270 272 275 279 285 288 286 281 279 280 282 283 290 294 295 297 298 299 301 303 306 306 305 305 305 308 312 315 318
248 247 247 246 246 246 247 248 249 251 254 260 263 266 272 276 276 278 282 285 285 285 281 282 284 288 294 296 293 294 297 299 299 301 303 306 307 307 310 312 317 318 316
248 247 246 245 245 246 243 244 246 249 253 257 262 267 271 275 279 281 284 284 286 285 286 290 291 293 295 297 297 297 299 299 301 304 305 308 309 309 311 313 317 315 311
245 244 243 245 243 242 243 246 246 249 251 257 260 266 271 275 280 283 285 285 286 285 288 293 294 295 297 299 299 296 300 300 302 306 308 308 310 311 313 316 317 315 311
243 242 244 244 244 241 242 246 248 248 251 256 259 264 268 273 278 281 284 287 286 287 289 293 296 296 295 298 301 300 302 303 305 307 307 309 310 310 313 316 318 317 315
240 241 242 243 245 243 244 246 249 251 254 257 258 264 267 271 275 279 283 287 289 290 292 293 294 296 298 298 299 300 301 302 302 305 307 308 310 311 313 316 318 318 318
239 241 243 244 244 243 245 248 250 252 254 257 259 263 267 271 272 277 281 285 288 289 290 291 293 294 297 298 299 298 300 302 302 303 305 307 309 311 313 316 319 321 318
240 242 243 243 245 245 247 248 250 251 254 258 260 263 267 272 276 277 280 283 285 287 289 291 292 294 296 298 297 298 299 299 301 303 305 307 307 309 311 315 316 322 321
242 243 243 244 246 246 248 252 253 253 253 257 261 265 269 274 278 280 285 286 288 291 291 293 294 295 295 296 296 298 299 297 298 299 300 302 303 305 310 312 315 319 319
242 243 243 243 246 251 252 253 254 254 255 257 261 265 268 272 276 278 281 284 288 290 290 292 292 291 294 296 296 297 297 296 295 296 300 300 302 304 308 310 314 317 318
243 243 243 244 244 246 250 254 255 257 258 260 261 264 267 270 273 275 279 282 286 288 289 288 290 292 293 294 293 292 295 294 296 295 296 297 301 303 307 310 314 315 315
242 243 244 245 245 246 248 251 254 257 258 259 261 264 267 270 272 274 279 280 284 287 288 289 289 291 293 293 294 292 292 294 299 297 294 298 301 305 306 309 311 311 313
240 241 243 244 246 246 249 252 255 256 259 261 262 263 265 269 271 274 278 281 284 286 288 290 291 293 292 292 291 293 294 293 297 299 299 302 303 306 307 308 309 310 313
240 241 242 244 246 247 248 250 254 257 259 261 262 263 265 267 271 273 277 280 283 286 288 288 289 291 292 292 292 292 294 295 296 301 302 302 303 305 306 308 308 309 312
238 239 241 243 244 245 247 250 253 256 258 261 263 263 266 268 271 274 277 278 281 284 285 287 288 289 291 291 290 291 291 295 301 299 300 301 303 304 305 305 306 308 310
239 238 241 241 241 243 244 247 250 254 258 261 264 267 268 270 273 275 278 279 281 282 284 285 286 287 289 290 294 294 294 295 298 301 302 302 301 301 301 302 305 307 308
235 237 237 238 242 244 245 247 250 254 258 262 264 266 268 270 273 275 277 279 282 284 284 286 290 292 295 294 295 298 300 299 297 297 298 299 298 299 300 303 304 306 308
229 236 237 237 241 245 246 246 249 251 253 257 261 264 267 269 271 274 276 277 280 284 286 288 290 293 294 294 295 296 295 294 295 295 296 297 298 299 300 302 304 306 308
219 228 233 236 239 243 244 246 249 250 250 255 259 264 266 267 269 271 274 276 281 283 286 286 288 289 290 291 291 291 291 293 293 295 296 297 298 300 302 304 305 306 307
222 227 230 235 240 242 245 248 250 250 251 255 257 260 265 266 267 270 275 278 281 282 285 287 288 288 289 289 289 291 292 293 293 294 296 297 300 301 302 303 305 306 308
223 231 232 234 236 242 245 247 250 253 254 254 258 259 263 265 268 272 276 277 279 282 284 286 287 288 289 291 292 292 293 294 295 296 297 299 301 301 301 303 305 306 307